Beaufort, NC

12:44 AM EST on December 14, 2019 (GMT -0500)
Smith

Weather History for KMRH - October, 2019

Change the Weather History Date:

Saturday, October 26, 2019

  Actual Average Record
Temperature  
Mean Temperature 70 °F -  
Max Temperature 80 °F 73 °F 83 °F (1991)
Min Temperature 63 °F 54 °F 37 °F (1962)
Cooling Degree Days 6    
Growing Degree Days 20 (Base 50)    
Moisture  
Dew Point 66 °F    
Average Humidity 83    
Maximum Humidity 100    
Minimum Humidity 66    
Precipitation  
Precipitation 0.00 in - - ()
Sea Level Pressure  
Sea Level Pressure 30.12 in    
Wind  
Wind Speed 5 mph (ENE)    
Max Wind Speed 12 mph    
Max Gust Speed 17 mph    
Visibility 10 miles    
Events      
Averages and records for this station are not official NWS values.
T = Trace of Precipitation, MM = Missing Value Source: NWS Daily Summary

Daily Weather History Graph

Daily Weather History Graph

Search for Another Location

Airport or City:

Astronomy

Oct. 26, 2019 Rise Set
Actual Time 7:21 AM EDT 6:19 PM EDT
Civil Twilight 6:55 AM EDT 6:44 PM EDT
Nautical Twilight 6:26 AM EDT 7:14 PM EDT
Astronomical Twilight 5:56 AM EDT 7:43 PM EDT
Moon 5:22 AM EDT (10/26) 5:47 PM EDT (10/26)
Length of Visible Light 11h 49m
Length of Day
10h 57m
Waning Crescent, 3% of the Moon is Illuminated
Oct 26
Waning Crescent
Oct 27
New
Nov 4
First Quarter
Nov 12
Full
Nov 19
Last Quarter

Hourly Weather History & Observations

Time (EDT) Temp. Dew Point Humidity Pressure Visibility Wind Dir Wind Speed Gust Speed Precip Events Conditions
12:58 AM 63.0 °F 62.1 °F 97% 30.19 in 10.0 mi ENE 3.5 mph - N/A   Clear
1:58 AM 63.0 °F 62.1 °F 97% 30.18 in 10.0 mi NE 3.5 mph - N/A   Clear
2:58 AM 63.0 °F 62.1 °F 97% 30.16 in 10.0 mi NE 3.5 mph - N/A   Clear
3:58 AM 64.0 °F 64.0 °F 100% 30.15 in 10.0 mi NE 3.5 mph - N/A   Mostly Cloudy
4:58 AM 64.0 °F 63.0 °F 96% 30.14 in 10.0 mi ENE 4.6 mph - N/A   Mostly Cloudy
5:58 AM 64.0 °F 63.0 °F 96% 30.15 in 10.0 mi NE 3.5 mph - N/A   Scattered Clouds
6:58 AM 64.9 °F 63.0 °F 93% 30.14 in 10.0 mi ENE 3.5 mph - N/A   Clear
7:58 AM 66.9 °F 64.0 °F 90% 30.14 in 10.0 mi ENE 4.6 mph - N/A   Mostly Cloudy
8:58 AM 71.1 °F 64.0 °F 78% 30.16 in 10.0 mi NE 5.8 mph - N/A   Partly Cloudy
9:58 AM 75.0 °F 66.9 °F 76% 30.16 in 10.0 mi ENE 5.8 mph - N/A   Clear
10:58 AM 77.0 °F 66.0 °F 69% 30.16 in 10.0 mi ENE 9.2 mph - N/A   Clear
11:58 AM 78.1 °F 66.0 °F 66% 30.15 in 10.0 mi East 8.1 mph - N/A   Clear
12:58 PM 78.1 °F 66.0 °F 66% 30.14 in 10.0 mi East 9.2 mph - N/A   Mostly Cloudy
1:58 PM 78.1 °F 66.0 °F 66% 30.11 in 10.0 mi East 9.2 mph - N/A   Partly Cloudy
2:58 PM 78.1 °F 66.9 °F 68% 30.10 in 10.0 mi East 10.4 mph - N/A   Scattered Clouds
3:58 PM 77.0 °F 66.0 °F 69% 30.09 in 10.0 mi East 6.9 mph - N/A   Scattered Clouds
4:58 PM 75.9 °F 66.0 °F 71% 30.09 in 10.0 mi East 8.1 mph - N/A   Partly Cloudy
5:58 PM 73.0 °F 66.9 °F 81% 30.09 in 10.0 mi ENE 4.6 mph - N/A   Partly Cloudy
6:58 PM 72.0 °F 66.9 °F 84% 30.09 in 10.0 mi ENE 4.6 mph - N/A   Partly Cloudy
7:58 PM 71.1 °F 66.9 °F 87% 30.08 in 10.0 mi ENE 4.6 mph - N/A   Clear
8:58 PM 70.0 °F 66.9 °F 90% 30.07 in 10.0 mi ENE 3.5 mph - N/A   Partly Cloudy
9:58 PM 71.1 °F 69.1 °F 93% 30.07 in 10.0 mi ESE 3.5 mph - N/A   Clear
10:58 PM 73.9 °F 70.0 °F 87% 30.06 in 10.0 mi ESE 6.9 mph - N/A   Clear
11:58 PM 75.0 °F 70.0 °F 84% 30.05 in 10.0 mi SE 11.5 mph 17.3 mph N/A   Clear